TimeCST,TemperatureF,Dew PointF,Humidity,Sea Level PressureIn,VisibilityMPH,Wind Direction,Wind SpeedMPH,Gust SpeedMPH,PrecipitationIn,Events,Conditions,WindDirDegrees,DateUTC
12:54 AM,70.0,64.9,84,29.83,10.0,South,20.7,26.5,N/A,,Overcast,170,2013-01-13 06:54:00
1:54 AM,71.1,64.9,81,29.79,10.0,SSE,26.5,36.8,N/A,,Overcast,160,2013-01-13 07:54:00
2:54 AM,71.1,64.0,78,29.83,10.0,South,20.7,28.8,N/A,,Overcast,190,2013-01-13 08:54:00
3:54 AM,71.1,64.0,78,29.85,10.0,South,12.7,21.9,N/A,,Overcast,180,2013-01-13 09:54:00
4:19 AM,71.6,64.4,78,29.86,10.0,South,10.4,-,N/A,,Overcast,180,2013-01-13 10:19:00
4:54 AM,70.0,64.9,84,29.86,10.0,South,8.1,-,N/A,,Overcast,180,2013-01-13 10:54:00
5:54 AM,70.0,64.9,84,29.86,10.0,SSE,12.7,-,N/A,,Overcast,160,2013-01-13 11:54:00
6:54 AM,70.0,64.0,81,29.86,10.0,SSE,19.6,26.5,N/A,,Scattered Clouds,160,2013-01-13 12:54:00
7:54 AM,69.1,64.0,84,29.89,10.0,South,8.1,-,N/A,,Mostly Cloudy,170,2013-01-13 13:54:00
8:54 AM,70.0,64.0,81,29.87,10.0,SSE,13.8,23.0,N/A,,Mostly Cloudy,160,2013-01-13 14:54:00
9:54 AM,72.0,64.9,78,29.89,10.0,South,15.0,-,N/A,,Partly Cloudy,170,2013-01-13 15:54:00
10:33 AM,73.4,64.4,73,29.91,10.0,South,19.6,25.3,N/A,,Mostly Cloudy,180,2013-01-13 16:33:00
10:54 AM,73.0,66.0,79,29.88,10.0,South,19.6,26.5,N/A,,Mostly Cloudy,190,2013-01-13 16:54:00
11:54 AM,75.0,66.0,73,29.86,10.0,SSW,15.0,-,N/A,,Mostly Cloudy,200,2013-01-13 17:54:00
12:35 PM,62.6,55.4,77,29.88,10.0,NW,15.0,23.0,N/A,,Overcast,310,2013-01-13 18:35:00
12:49 PM,57.2,53.6,88,29.90,9.0,NNW,15.0,21.9,N/A,,Overcast,340,2013-01-13 18:49:00
12:54 PM,55.0,52.0,89,29.88,3.0,NNW,10.4,20.7,0.00,Rain,Heavy Rain,330,2013-01-13 18:54:00
1:07 PM,53.6,51.8,94,29.90,4.0,NNW,12.7,19.6,0.05,Rain,Light Rain,330,2013-01-13 19:07:00
1:54 PM,50.0,48.0,93,29.92,10.0,NNW,18.4,23.0,0.08,,Overcast,330,2013-01-13 19:54:00
2:24 PM,48.2,46.4,93,30.01,1.8,WSW,16.1,24.2,0.06,Rain,Heavy Rain,240,2013-01-13 20:24:00
2:33 PM,48.2,46.4,93,29.96,0.8,NNW,9.2,-,0.27,Rain-Thunderstorm,Heavy Thunderstorms and Rain,340,2013-01-13 20:33:00
2:37 PM,48.2,46.4,93,29.96,1.2,NNW,9.2,-,0.29,Rain-Thunderstorm,Heavy Thunderstorms and Rain,340,2013-01-13 20:37:00
2:46 PM,48.2,46.4,93,29.99,3.0,WNW,9.2,-,0.35,Rain-Thunderstorm,Thunderstorms and Rain,290,2013-01-13 20:46:00
2:48 PM,48.2,46.4,93,29.98,2.5,NW,9.2,-,N/A,Rain-Thunderstorm,Thunderstorms and Rain,310,2013-01-13 20:48:00
2:54 PM,46.9,46.0,97,30.01,1.0,West,9.2,-,0.39,Rain-Thunderstorm,Heavy Thunderstorms and Rain,280,2013-01-13 20:54:00
3:03 PM,46.4,44.6,93,29.99,2.0,NW,13.8,20.7,0.10,Rain-Thunderstorm,Thunderstorms and Rain,320,2013-01-13 21:03:00
3:12 PM,46.4,44.6,93,30.00,6.0,NW,11.5,23.0,0.12,Rain-Thunderstorm,Light Thunderstorms and Rain,320,2013-01-13 21:12:00
3:15 PM,46.4,44.6,93,30.00,7.0,NW,11.5,23.0,0.12,Rain,Light Rain,320,2013-01-13 21:15:00
3:22 PM,46.4,44.6,93,30.02,10.0,NW,9.2,16.1,0.12,Rain,Light Rain,320,2013-01-13 21:22:00
3:29 PM,46.4,44.6,93,30.02,10.0,NW,9.2,-,0.12,,Overcast,320,2013-01-13 21:29:00
3:46 PM,46.4,44.6,93,30.04,4.0,NNW,13.8,20.7,0.13,Rain,Rain,330,2013-01-13 21:46:00
3:54 PM,46.0,44.1,93,30.05,4.0,NW,12.7,-,0.15,Rain,Light Rain,320,2013-01-13 21:54:00
4:11 PM,46.4,44.6,93,30.03,4.0,North,13.8,-,0.06,Rain,Rain,350,2013-01-13 22:11:00
4:21 PM,46.4,44.6,93,30.03,6.0,North,10.4,-,0.08,Rain,Light Rain,350,2013-01-13 22:21:00
4:33 PM,46.4,44.6,93,30.04,2.5,NNW,9.2,18.4,0.11,Rain,Rain,340,2013-01-13 22:33:00
4:43 PM,46.4,44.6,93,30.04,2.0,North,11.5,-,0.17,Rain,Heavy Rain,360,2013-01-13 22:43:00
4:54 PM,46.0,44.1,93,30.05,5.0,NNW,10.4,-,0.20,Rain,Light Rain,340,2013-01-13 22:54:00
5:40 PM,46.4,42.8,87,30.07,6.0,NNW,15.0,19.6,0.00,,Overcast,330,2013-01-13 23:40:00
5:54 PM,45.0,42.1,90,30.08,10.0,NNW,13.8,20.7,0.00,,Overcast,330,2013-01-13 23:54:00
6:54 PM,44.1,41.0,89,30.12,10.0,North,15.0,20.7,N/A,,Overcast,350,2013-01-14 00:54:00
7:54 PM,43.0,39.9,89,30.14,10.0,North,15.0,-,N/A,,Overcast,360,2013-01-14 01:54:00
8:02 PM,42.8,39.2,87,30.15,10.0,North,10.4,-,N/A,,Overcast,350,2013-01-14 02:02:00
8:54 PM,42.1,39.0,89,30.14,10.0,NNW,13.8,-,N/A,,Overcast,340,2013-01-14 02:54:00
9:54 PM,42.1,39.0,89,30.13,10.0,North,13.8,19.6,N/A,,Overcast,10,2013-01-14 03:54:00
10:51 PM,42.8,37.4,81,30.15,10.0,North,15.0,-,N/A,,Overcast,10,2013-01-14 04:51:00
10:54 PM,42.1,37.9,85,30.14,10.0,North,12.7,-,N/A,,Overcast,10,2013-01-14 04:54:00
11:54 PM,42.1,37.9,85,30.16,10.0,North,11.5,38.0,N/A,,Overcast,350,2013-01-14 05:54:00